Orbital Elements at Epoch 2459200.5 (2020-Dec-17.0) TDB
Reference: JPL 24 (heliocentric ecliptic J2000)
Element | Value | Uncertainty (1-sigma) | Units |
e | .2000061210231442 | 3.5338e-08 | |
a | 2.427665701240752 | 7.1554e-09 | au |
q | 1.942117701194658 | 8.5677e-08 | au |
i | .3399853117310196 | 3.8706e-06 | deg |
node | 245.3860732949429 | 0.00054774 | deg |
peri | 131.5198145883791 | 0.00054781 | deg |
M | 43.67137371326037 | 8.0382e-06 | deg |
tp | 2459032.899193915318 (2020-Jul-02.39919392) | 3.0643e-05 | TDB |
period | 1381.598174278749 3.78 | 6.1083e-06 1.672e-08 | d yr |
n | .2605678023481283 | 1.152e-09 | deg/d |
Q | 2.913213701286846 | 8.5866e-09 | au |
|
| | Orbit Determination Parameters
Additional Information
|